Location: Laporte
(40.6264°N, 105.1378°W)
Time: 13:29:44
(UTC+00:00)

Envisat - Pass Details

Date: 25 August 2022
Orbit: 764 x 765 km, 98.2° (Epoch: 26 September)

Event Time Altitude Azimuth Distance (km) Brightness Sun altitude
Rises 11:35:00 0° 11° (N) 3,239 6.7 -9.1°
Reaches altitude 10° 11:37:19 10° 10° (N) 2,308 5.9 -8.7°
Maximum altitude 11:42:24 78° 286° (WNW) 785 3.0 -7.8°
Drops below altitude 10° 11:47:27 10° 200° (SSW) 2,292 5.1 -6.9°
Sets 11:49:44 0° 198° (SSW) 3,213 5.9 -6.5°
